Location: Ecklingerode
(51.5036°N, 10.3122°E)
Time: 07:47:12
(UTC+00:00)

Cosmos 2058 - Pass Details

Date: 29 October 2020
Orbit: 562 x 583 km, 82.5° (Epoch: 01 December)

Event Time Altitude Azimuth Distance (km) Brightness Sun altitude
Rises 17:27:58 0° 350° (N) 2,770 6.5 -14.7°
Reaches altitude 10° 17:30:10 10° 353° (N) 1,868 5.6 -15.0°
Maximum altitude 17:34:17 74° 78° (ENE) 593 2.7 -15.7°
Drops below altitude 10° 17:38:22 10° 164° (SSE) 1,855 5.4 -16.3°
Sets 17:40:32 0° 166° (SSE) 2,749 6.3 -16.6°
